Date String (YYYY-MM-DD hh:mm:ss) UTC,Instrument flags,Ambient pressure (hPa),Sample flow (lpm),Bypass flow (lpm),Sample temperature (°C),Ambient temperature (°C),ASC tube jacket temperature (°C),LED temperature (°C),Box temperature (°C),Sample RH (%),Span deviation,Mass concentration (μg/m³),Mass concentration (μg/m³),Mass concentration (μg/m³)
DateTimeUTC,F1_M11,P_M11,Q1_M11,Q2_M11,T1_M11,T2_M11,T3_M11,T4_M11,T5_M11,U1_M11,ZSPAN_M11,X0_M11,X2_M11,X1_M11
2023-01-18 16:00:00,,0815.4,5.01,0.00,22.6,21.3,00.0,31.4,24.4,14.5,0000.0,0003.73,0003.33,0003.24
2023-01-18 16:01:00,,0815.4,5.00,0.00,22.6,21.2,00.0,31.4,24.3,14.5,0000.0,0004.29,0003.61,0003.51
2023-01-18 16:02:00,,0815.5,5.00,0.00,22.6,21.2,00.0,31.4,24.3,14.5,0000.0,0005.37,0004.18,0004.07
2023-01-18 16:03:00,,0815.4,5.00,0.00,22.6,21.1,00.0,31.4,24.3,14.5,0000.0,0006.59,0004.78,0004.65
2023-01-18 16:04:00,,0815.4,5.00,0.00,22.6,21.1,00.0,31.4,24.3,14.6,0000.0,0007.40,0005.18,0005.04
2023-01-18 16:05:00,,0815.4,5.00,0.00,22.6,21.1,00.0,31.4,24.3,14.6,0000.0,0008.15,0005.76,0005.60
2023-01-18 16:06:00,,0815.5,5.00,0.00,22.6,21.0,00.0,31.4,24.3,14.6,0000.0,0008.83,0006.39,0006.22
2023-01-18 16:07:00,,0815.5,5.00,0.00,22.5,21.0,00.0,31.4,24.3,14.6,0000.8,0009.50,0007.03,0006.85
2023-01-18 16:08:00,,0815.8,5.00,0.00,22.5,21.0,00.0,31.3,24.3,14.6,0002.3,0010.29,0007.83,0007.64
2023-01-18 16:09:00,,0815.8,5.00,0.00,22.5,20.9,00.0,31.3,24.3,14.6,0002.3,0010.95,0008.52,0008.35
2023-01-18 16:10:00,,0815.9,4.99,0.00,22.5,20.9,00.0,31.3,24.3,14.7,0001.8,0011.56,0009.11,0008.95
2023-01-18 16:11:00,,0816.0,4.99,0.00,22.5,20.9,00.0,31.3,24.3,14.7,0001.2,0012.09,0009.58,0009.41
2023-01-18 16:12:00,,0816.1,5.00,0.00,22.5,21.3,00.0,31.3,24.3,14.7,0001.6,0012.41,0009.94,0009.77
2023-01-18 16:13:00,,0816.2,5.00,0.00,22.6,22.3,00.0,31.3,24.5,14.7,0001.8,0012.60,0010.08,0009.89
2023-01-18 16:14:00,,0816.2,4.99,0.00,22.7,23.1,00.0,31.3,24.7,14.6,0001.8,0012.53,0010.06,0009.89
2023-01-18 16:15:00,,0816.0,4.99,0.00,22.8,23.0,00.0,31.4,24.8,14.5,0002.4,0012.41,0010.03,0009.87
2023-01-18 16:16:00,,0816.1,5.03,0.00,22.8,22.6,00.0,31.4,24.7,14.5,0002.6,0012.25,0009.99,0009.82
2023-01-18 16:17:00,,0816.1,5.00,0.00,22.8,22.3,00.0,31.4,24.7,14.5,0002.5,0012.03,0009.81,0009.66
2023-01-18 16:18:00,,0816.1,5.01,0.00,22.8,22.0,00.0,31.4,24.6,14.5,0002.5,0011.79,0009.60,0009.47
2023-01-18 16:19:00,,0816.1,5.01,0.00,22.8,21.8,00.0,31.4,24.6,14.5,0002.0,0011.43,0009.21,0009.08
2023-01-18 16:20:00,,0815.9,5.01,0.00,22.8,21.7,00.0,31.5,24.6,14.5,0001.7,0011.22,0008.99,0008.84
2023-01-18 16:21:00,,0815.9,4.99,0.00,22.8,21.6,00.0,31.5,24.6,14.5,0001.5,0010.99,0008.75,0008.60
2023-01-18 16:22:00,,0815.8,5.00,0.00,22.8,21.5,00.0,31.5,24.6,14.5,0002.1,0010.72,0008.51,0008.36
2023-01-18 16:23:00,,0815.7,5.01,0.00,22.8,21.5,00.0,31.5,24.5,14.5,0001.7,0010.68,0008.42,0008.25
2023-01-18 16:24:00,,0815.7,5.00,0.00,22.8,21.5,00.0,31.5,24.5,14.5,0000.9,0010.58,0008.34,0008.19
2023-01-18 16:25:00,,0815.7,4.99,0.00,22.8,21.4,00.0,31.5,24.5,14.5,0000.0,0010.51,0008.26,0008.11
2023-01-18 16:26:00,,0815.7,4.99,0.00,22.7,21.4,00.0,31.5,24.5,14.6,0000.0,0010.51,0008.26,0008.11
2023-01-18 16:27:00,,0815.7,5.01,0.00,22.7,21.4,00.0,31.5,24.5,14.6,0000.0,0010.51,0008.24,0008.09
2023-01-18 16:28:00,,0815.7,5.00,0.00,22.7,21.4,00.0,31.5,24.5,14.6,0000.0,0010.42,0008.16,0008.02
2023-01-18 16:29:00,,0815.6,5.00,0.00,22.7,21.3,00.0,31.5,24.5,14.6,0000.0,0010.26,0008.01,0007.89
2023-01-18 16:30:00,,0815.7,5.01,0.00,22.7,21.3,00.0,31.5,24.5,14.6,0000.0,0010.19,0007.91,0007.78
2023-01-18 16:31:00,,0815.7,5.00,0.00,22.7,21.3,00.0,31.5,24.4,14.6,0000.0,0010.26,0007.91,0007.78
2023-01-18 16:32:00,,0815.7,4.99,0.00,22.7,21.3,00.0,31.5,24.4,14.7,0000.0,0010.23,0007.85,0007.72
2023-01-18 16:33:00,,0815.7,5.01,0.00,22.7,21.3,00.0,31.5,24.4,14.7,0000.0,0010.22,0007.77,0007.64
2023-01-18 16:34:00,,0815.7,5.00,0.00,22.7,21.3,00.0,31.5,24.4,14.7,0000.0,0010.13,0007.70,0007.56
2023-01-18 16:35:00,,0815.7,5.01,0.00,22.7,21.2,00.0,31.5,24.4,14.7,0000.0,0009.97,0007.59,0007.48
2023-01-18 16:36:00,,0815.7,5.01,0.00,22.7,21.2,00.0,31.5,24.4,14.7,0000.0,0009.84,0007.46,0007.35
2023-01-18 16:37:00,,0815.7,5.00,0.00,22.7,21.1,00.0,31.5,24.5,14.7,0000.0,0009.74,0007.34,0007.23
2023-01-18 16:38:00,,0815.8,5.00,0.00,22.6,21.1,00.0,31.5,24.4,14.7,0000.0,0009.67,0007.23,0007.12
2023-01-18 16:39:00,,0815.8,4.99,0.00,22.6,21.1,00.0,31.4,24.4,14.8,0000.0,0009.66,0007.20,0007.07
2023-01-18 16:40:00,,0815.8,5.00,0.00,22.6,21.1,00.0,31.4,24.4,14.8,0000.0,0009.70,0007.17,0007.00
2023-01-18 16:41:00,,0815.8,5.00,0.00,22.6,21.1,00.0,31.4,24.4,14.8,0000.0,0009.55,0007.04,0006.88
2023-01-18 16:42:00,,0815.8,4.99,0.00,22.6,21.1,00.0,31.4,24.4,14.8,0000.0,0009.29,0006.87,0006.72
2023-01-18 16:43:00,,0815.8,5.01,0.00,22.6,21.1,00.0,31.4,24.4,14.9,0000.0,0009.22,0006.79,0006.62
2023-01-18 16:44:00,,0815.8,4.99,0.00,22.6,21.1,00.0,31.4,24.4,14.9,0000.0,0009.01,0006.64,0006.48
2023-01-18 16:45:00,,0815.8,4.99,0.00,22.6,21.1,00.0,31.4,24.4,14.9,0000.0,0008.89,0006.52,0006.36
2023-01-18 16:46:00,,0815.8,5.00,0.00,22.6,21.1,00.0,31.4,24.4,14.9,0000.0,0008.82,0006.44,0006.28
2023-01-18 16:47:00,,0815.8,5.00,0.00,22.6,21.0,00.0,31.4,24.4,15.0,0000.0,0008.82,0006.39,0006.24
2023-01-18 16:48:00,,0815.8,5.01,0.00,22.6,21.0,00.0,31.4,24.3,15.0,0000.0,0008.67,0006.27,0006.12
2023-01-18 16:49:00,,0815.9,5.00,0.00,22.6,21.0,00.0,31.4,24.3,15.0,0000.0,0008.45,0006.10,0005.96
2023-01-18 16:50:00,,0815.9,5.00,0.00,22.6,21.0,00.0,31.4,24.3,15.1,0000.0,0008.21,0005.88,0005.74
2023-01-18 16:51:00,,0815.9,5.00,0.00,22.6,21.0,00.0,31.3,24.3,15.1,0000.0,0007.94,0005.65,0005.54
2023-01-18 16:52:00,,0815.9,5.00,0.00,22.5,21.0,00.0,31.3,24.3,15.1,0000.0,0007.75,0005.48,0005.37
2023-01-18 16:53:00,,0815.9,5.00,0.00,22.5,21.0,00.0,31.3,24.3,15.1,0000.0,0007.56,0005.32,0005.22
2023-01-18 16:54:00,,0816.0,5.01,0.00,22.5,21.0,00.0,31.3,24.3,15.1,0000.0,0007.24,0005.08,0005.00
2023-01-18 16:55:00,,0815.9,4.99,0.00,22.5,21.0,00.0,31.3,24.3,15.2,0000.0,0006.86,0004.89,0004.81
2023-01-18 16:56:00,,0816.0,5.01,0.00,22.5,21.1,00.0,31.3,24.4,15.2,0000.0,0006.41,0004.66,0004.58
2023-01-18 16:57:00,,0815.9,5.02,0.00,22.6,21.9,00.0,31.3,24.5,15.1,0000.0,0005.88,0004.41,0004.34
2023-01-18 16:58:00,,0816.0,5.00,0.00,22.7,22.9,00.0,31.3,24.7,15.1,0000.0,0005.26,0004.15,0004.09
2023-01-18 16:59:00,,0816.0,4.97,0.00,22.8,23.1,00.0,31.4,24.8,15.0,0000.0,0004.86,0003.95,0003.89
